Meteo pe oră la Bolshie Krutcy

Astăzi, 8 Mai, Sâmbătă

Timp Temperatura Precipitaţii Vânt Presiune Umiditate
00:00 +4°C° 0 mm 3 m/s 745 mmHg 82%
01:00 +4°C° 0 mm 3 m/s 745 mmHg 81%
02:00 +4°C° 0 mm 3 m/s 745 mmHg 82%
03:00 +5°C° 0 mm 3 m/s 745 mmHg 80%
04:00 +5°C° 0 mm 4 m/s 745 mmHg 79%
05:00 +6°C° 0 mm 4 m/s 745 mmHg 78%
06:00 +6°C° 0.2 mm 4 m/s 744 mmHg 80%
07:00 +6°C° 0.2 mm 5 m/s 744 mmHg 83%
08:00 +7°C° 0 mm 5 m/s 744 mmHg 84%
09:00 +7°C° 0.5 mm 5 m/s 744 mmHg 87%
10:00 +7°C° 0.5 mm 5 m/s 743 mmHg 90%
11:00 +7°C° 0.5 mm 5 m/s 743 mmHg 92%
12:00 +7°C° 1.4 mm 4 m/s 743 mmHg 93%
13:00 +7°C° 1.4 mm 4 m/s 742 mmHg 94%
14:00 +7°C° 1.4 mm 4 m/s 742 mmHg 95%
15:00 +8°C° 1.7 mm 3 m/s 741 mmHg 96%
16:00 +8°C° 1.7 mm 2 m/s 741 mmHg 97%
17:00 +8°C° 1.7 mm 2 m/s 740 mmHg 98%
18:00 +8°C° 2 mm 2 m/s 740 mmHg 98%
19:00 +8°C° 2 mm 2 m/s 739 mmHg 97%
20:00 +7°C° 2 mm 3 m/s 739 mmHg 97%
21:00 +6°C° 1.1 mm 4 m/s 739 mmHg 96%
22:00 +6°C° 1.1 mm 4 m/s 739 mmHg 95%
23:00 +5°C° 1.1 mm 5 m/s 738 mmHg 95%

Mâine, 9 Mai, Duminică

Timp Temperatura Precipitaţii Vânt Presiune Umiditate
00:00 +4°C° 0.6 mm 6 m/s 739 mmHg 95%
01:00 +3°C° 0.6 mm 6 m/s 739 mmHg 95%
02:00 +2°C° 0.6 mm 7 m/s 740 mmHg 94%
03:00 0°C° 1.3 mm 7 m/s 740 mmHg 95%
04:00 0°C° 1.3 mm 7 m/s 741 mmHg 95%
05:00 -1°C° 1.3 mm 7 m/s 741 mmHg 96%
06:00 -1°C° 0.9 mm 7 m/s 742 mmHg 95%
07:00 0°C° 0.9 mm 7 m/s 743 mmHg 94%
08:00 0°C° 0.9 mm 7 m/s 743 mmHg 93%
09:00 +2°C° 0.2 mm 7 m/s 744 mmHg 87%
10:00 +4°C° 0.2 mm 7 m/s 745 mmHg 80%
11:00 +5°C° 0.2 mm 7 m/s 746 mmHg 74%
12:00 +7°C° 0 mm 6 m/s 746 mmHg 67%
13:00 +8°C° 0 mm 6 m/s 747 mmHg 61%
14:00 +10°C° 0 mm 6 m/s 747 mmHg 55%
15:00 +10°C° 0 mm 5 m/s 748 mmHg 55%
16:00 +10°C° 0 mm 5 m/s 749 mmHg 55%
17:00 +10°C° 0 mm 5 m/s 749 mmHg 56%
18:00 +8°C° 0 mm 4 m/s 750 mmHg 62%
19:00 +7°C° 0 mm 3 m/s 751 mmHg 68%
20:00 +4°C° 0 mm 3 m/s 752 mmHg 74%
21:00 +3°C° 0 mm 3 m/s 753 mmHg 75%
22:00 +2°C° 0 mm 3 m/s 753 mmHg 76%
23:00 +2°C° 0 mm 3 m/s 754 mmHg 76%

Poimâine, 10 Mai, Luni

Timp Temperatura Precipitaţii Vânt Presiune Umiditate
00:00 +2°C° 0 mm 2 m/s 755 mmHg 75%
01:00 +2°C° 0 mm 2 m/s 755 mmHg 74%
02:00 +1°C° 0 mm 2 m/s 756 mmHg 72%
03:00 +2°C° 0 mm 2 m/s 757 mmHg 70%
04:00 +3°C° 0 mm 1 m/s 757 mmHg 68%
05:00 +4°C° 0 mm 1 m/s 758 mmHg 67%
06:00 +6°C° 0 mm 1 m/s 758 mmHg 61%
07:00 +7°C° 0 mm 2 m/s 758 mmHg 56%
08:00 +9°C° 0 mm 2 m/s 759 mmHg 51%
09:00 +12°C° 0 mm 2 m/s 759 mmHg 48%
10:00 +13°C° 0 mm 2 m/s 759 mmHg 45%
11:00 +13°C° 0 mm 3 m/s 759 mmHg 42%
12:00 +13°C° 0 mm 3 m/s 759 mmHg 43%
13:00 +14°C° 0 mm 3 m/s 759 mmHg 44%
14:00 +14°C° 0 mm 3 m/s 759 mmHg 44%
15:00 +14°C° 0 mm 2 m/s 759 mmHg 50%
16:00 +14°C° 0 mm 2 m/s 759 mmHg 56%
17:00 +13°C° 0 mm 1 m/s 759 mmHg 62%
18:00 +12°C° 0 mm 1 m/s 759 mmHg 64%
19:00 +10°C° 0 mm 2 m/s 759 mmHg 66%
20:00 +10°C° 0 mm 2 m/s 759 mmHg 67%
21:00 +9°C° 0 mm 2 m/s 759 mmHg 70%
22:00 +8°C° 0 mm 2 m/s 760 mmHg 72%
23:00 +7°C° 0 mm 2 m/s 760 mmHg 75%

11 Mai, Marţi

Timp Temperatura Precipitaţii Vânt Presiune Umiditate
00:00 +7°C° 0 mm 2 m/s 760 mmHg 76%
01:00 +7°C° 0 mm 2 m/s 760 mmHg 78%
02:00 +6°C° 0 mm 2 m/s 760 mmHg 80%
03:00 +6°C° 0 mm 2 m/s 761 mmHg 79%
04:00 +7°C° 0 mm 2 m/s 761 mmHg 78%
05:00 +7°C° 0 mm 2 m/s 761 mmHg 78%
06:00 +9°C° 0 mm 2 m/s 761 mmHg 71%
07:00 +12°C° 0 mm 2 m/s 761 mmHg 64%
08:00 +14°C° 0 mm 2 m/s 761 mmHg 57%
09:00 +15°C° 0 mm 2 m/s 761 mmHg 55%
10:00 +16°C° 0 mm 3 m/s 761 mmHg 52%
11:00 +18°C° 0 mm 3 m/s 761 mmHg 49%
12:00 +18°C° 0 mm 2 m/s 761 mmHg 49%
13:00 +19°C° 0 mm 2 m/s 760 mmHg 49%
14:00 +19°C° 0 mm 2 m/s 760 mmHg 48%
15:00 +19°C° 0 mm 2 m/s 760 mmHg 53%
16:00 +18°C° 0 mm 2 m/s 760 mmHg 57%
17:00 +18°C° 0 mm 2 m/s 759 mmHg 61%
18:00 +16°C° 0 mm 2 m/s 759 mmHg 67%
19:00 +14°C° 0 mm 2 m/s 759 mmHg 72%
20:00 +12°C° 0 mm 2 m/s 759 mmHg 78%
21:00 +12°C° 0 mm 2 m/s 759 mmHg 79%
22:00 +10°C° 0 mm 2 m/s 759 mmHg 80%
23:00 +9°C° 0 mm 2 m/s 759 mmHg 81%

12 Mai, Miercuri

Timp Temperatura Precipitaţii Vânt Presiune Umiditate
00:00 +9°C° 0 mm 2 m/s 759 mmHg 82%
01:00 +8°C° 0 mm 2 m/s 759 mmHg 83%
02:00 +8°C° 0 mm 2 m/s 759 mmHg 84%
03:00 +8°C° 0 mm 2 m/s 759 mmHg 83%
04:00 +8°C° 0 mm 2 m/s 759 mmHg 81%
05:00 +9°C° 0 mm 2 m/s 759 mmHg 80%
06:00 +12°C° 0 mm 2 m/s 759 mmHg 73%
07:00 +13°C° 0 mm 3 m/s 759 mmHg 66%
08:00 +16°C° 0 mm 3 m/s 759 mmHg 59%
09:00 +17°C° 0 mm 3 m/s 759 mmHg 57%
10:00 +19°C° 0 mm 4 m/s 758 mmHg 55%
11:00 +20°C° 0 mm 4 m/s 758 mmHg 52%
12:00 +21°C° 0 mm 4 m/s 758 mmHg 53%
13:00 +22°C° 0 mm 4 m/s 758 mmHg 53%
14:00 +22°C° 0 mm 4 m/s 757 mmHg 53%
15:00 +22°C° 0 mm 4 m/s 757 mmHg 58%
16:00 +21°C° 0 mm 3 m/s 757 mmHg 62%
17:00 +21°C° 0 mm 3 m/s 757 mmHg 66%
18:00 +19°C° 0 mm 3 m/s 757 mmHg 73%
19:00 +17°C° 0 mm 3 m/s 756 mmHg 80%
20:00 +16°C° 0 mm 3 m/s 756 mmHg 87%
21:00 +14°C° 0 mm 3 m/s 756 mmHg 89%
22:00 +14°C° 0 mm 3 m/s 756 mmHg 90%
23:00 +13°C° 0 mm 3 m/s 756 mmHg 92%

13 Mai, Joi

Timp Temperatura Precipitaţii Vânt Presiune Umiditate
00:00 +13°C° 0.1 mm 3 m/s 756 mmHg 93%
01:00 +12°C° 0.1 mm 3 m/s 756 mmHg 94%
02:00 +12°C° 0.1 mm 3 m/s 755 mmHg 95%
03:00 +12°C° 0 mm 3 m/s 755 mmHg 93%
04:00 +13°C° 0 mm 4 m/s 755 mmHg 91%
05:00 +13°C° 0 mm 4 m/s 755 mmHg 89%
06:00 +13°C° 0.2 mm 4 m/s 755 mmHg 89%
07:00 +14°C° 0.2 mm 4 m/s 755 mmHg 89%
08:00 +14°C° 0.2 mm 3 m/s 754 mmHg 89%
09:00 +17°C° 0 mm 4 m/s 754 mmHg 84%
10:00 +17°C° 0 mm 5 m/s 754 mmHg 78%
11:00 +19°C° 0 mm 5 m/s 754 mmHg 73%
12:00 +20°C° 0 mm 5 m/s 753 mmHg 71%
13:00 +20°C° 0 mm 5 m/s 753 mmHg 70%
14:00 +20°C° 0 mm 5 m/s 753 mmHg 68%
15:00 +20°C° 0.1 mm 5 m/s 753 mmHg 70%
16:00 +19°C° 0.1 mm 5 m/s 753 mmHg 72%
17:00 +19°C° 0.1 mm 5 m/s 752 mmHg 74%
18:00 +18°C° 0.1 mm 4 m/s 752 mmHg 78%
19:00 +17°C° 0.1 mm 3 m/s 753 mmHg 83%
20:00 +16°C° 0.1 mm 3 m/s 753 mmHg 87%
21:00 +14°C° 0 mm 3 m/s 753 mmHg 89%
22:00 +14°C° 0 mm 3 m/s 753 mmHg 92%
23:00 +14°C° 0 mm 2 m/s 752 mmHg 94%
Arată mai mult

Formular de consimțământ

Meteoprog și furnizorii noștri de servicii pot stoca și accesa date personale, precum cookies, identificatori de dispozitiv sau alte tehnologii similare pe dispozitivul dumneavoastră și procesa astfel de date pentru a personaliza conținutul și reclamele, dar și pentru a oferi caracteristici de social media și pentru a analiza traficul.

  • Stocarea și/sau accesarea informațiilor pe dispozitivul dumneavoastră

    Cookies, identificatori de dispozitiv sau alte informații pot fi stocate sau accesate pe dispozitiv în scopurile indicate mai sus.

  • Reclame și conținut personalizat, evaluarea reclamelor și a conținutului, informații despre audiențe și dezvoltarea produselor

    Reclamele și conținutul pot fi personalizate pe baza unui profil. Pot fi adăugate date suplimentare pentru a personaliza mai bine reclamele și conținutul. Performanța reclamelor și conținutului poate fi măsurată. Pot fi obținute informații despre utilizatorii care au văzut reclamele și conținutul. Aceste date pot fi utilizate pentru a dezvolta sau îmbunătăți experiența utilizatorilor, sistemele și software-ul.

Dând clic pe ‘Sunt de acord’, permiteți utilizarea cookie-urilor menționate, a identificatorilor de dispozitiv, balizelor web sau altor tehnologii similare. Setările pot fi modificate din browser-ul dispozitivului dumneavoastră.

În anumite scopuri, interesele legitime pot prima asupra consimțământului. Puteți citi mai multe informații în acest sens în Politica privind Confidențialitatea Datelor și Cookie.